GEFSMA_500_meanwind_000.txt.gz
Wind_Speed
18 19 20 18 17 18 20 21 23 24 24 25 28 32 35 36 37 39 41 41 42 44 44 44 45 48 49 48 48 49 50 51 51 49 48 48 49 48 47 47 48 45 46
18 22 22 20 19 20 22 23 25 26 28 31 35 37 39 41 42 44 46 48 48 49 50 49 47 49 51 51 52 53 54 54 53 53 52 52 53 53 52 51 51 50 50
21 23 22 21 21 23 26 28 30 32 35 37 39 41 44 47 49 50 50 53 55 55 55 54 53 54 56 57 56 55 56 55 55 57 57 56 56 57 58 58 56 54 54
19 20 21 21 22 24 27 30 34 38 41 42 43 45 48 52 53 54 55 57 58 59 60 61 62 61 62 63 61 58 58 58 58 56 56 57 59 60 62 63 63 60 58
22 22 22 22 21 25 31 33 36 40 43 45 47 50 54 57 58 58 60 61 61 62 64 67 69 67 67 67 65 61 61 62 60 57 57 58 60 63 64 66 68 68 65
27 28 28 28 29 34 37 39 40 40 44 46 49 53 57 60 60 63 64 65 66 68 68 69 70 69 68 66 64 64 60 56 53 54 56 57 59 61 63 68 72 72 72
33 35 36 35 34 37 40 42 43 45 48 48 50 54 58 60 63 63 65 65 69 71 71 68 63 61 60 57 53 54 53 51 52 53 55 57 58 58 60 64 71 72 72
36 36 39 39 40 43 44 45 48 50 52 53 55 57 59 61 63 64 66 69 70 66 62 56 51 49 47 46 47 47 47 49 52 51 51 53 55 55 57 56 63 69 71
41 40 43 46 48 49 49 50 54 54 54 57 58 59 61 63 64 66 69 66 60 51 51 51 47 46 45 43 45 49 50 50 52 54 54 53 55 56 55 55 54 59 68
46 47 49 50 52 53 54 56 56 56 56 58 60 62 62 62 60 56 53 49 45 43 44 45 44 45 47 47 48 49 52 54 55 57 57 55 55 56 57 57 55 53 62
52 53 51 46 45 50 53 54 54 56 59 60 61 62 60 56 51 47 44 44 43 42 43 45 47 49 51 51 51 52 54 56 58 58 56 54 53 53 55 56 58 55 54
50 47 47 47 50 52 54 56 57 58 58 59 60 59 56 51 48 47 45 45 44 42 46 50 52 53 54 55 56 57 58 57 58 56 54 53 51 51 51 53 57 56 53
42 39 47 53 54 54 55 57 57 57 57 59 59 57 53 50 49 48 48 48 50 50 51 54 57 58 58 60 62 62 61 59 57 54 52 51 50 50 50 49 52 54 53
40 45 50 52 53 55 56 55 55 57 60 59 56 54 52 50 50 50 54 57 58 57 57 59 60 62 63 64 65 63 60 57 55 53 52 50 48 49 48 48 49 49 50
43 47 52 54 55 54 52 55 57 59 59 57 55 53 53 54 55 56 59 62 63 63 62 61 59 59 61 61 61 60 59 56 55 54 52 49 48 48 47 46 46 48 48
45 50 53 52 50 52 55 57 58 58 56 55 55 55 56 58 58 59 61 63 64 64 63 59 55 54 54 56 56 56 55 53 53 53 49 48 48 46 44 43 44 46 46
47 50 48 49 52 55 56 57 57 55 55 57 57 57 57 58 59 61 62 63 63 62 61 56 48 42 41 45 45 46 46 45 45 45 42 41 43 44 42 39 42 41 39
45 45 47 50 53 55 56 56 55 54 55 57 57 57 58 59 59 60 60 60 59 56 52 45 41 37 38 39 39 41 40 40 39 37 33 34 37 39 39 39 40 40 38
45 47 49 50 53 54 53 53 53 53 54 54 56 58 59 60 58 55 52 48 46 45 43 39 35 35 36 36 37 37 35 32 28 25 25 28 32 35 37 38 39 38 37
47 48 49 49 50 51 52 52 52 53 53 55 57 58 57 54 48 43 39 37 35 34 32 30 28 29 30 31 31 28 22 18 16 17 20 23 25 28 31 34 35 35 36
45 46 47 48 50 51 51 51 52 54 55 56 54 52 49 44 41 41 38 33 28 25 22 20 21 22 25 27 23 17 13 11 10 11 14 18 20 23 26 29 30 30 33
44 46 48 50 51 51 51 52 53 55 53 50 46 44 43 42 42 41 34 28 23 19 17 17 18 21 23 18 13 11 7 8 9 10 13 16 19 21 22 24 28 31 30
45 47 50 50 50 50 51 52 53 51 46 42 40 40 38 35 35 31 26 23 20 18 17 17 17 17 13 11 9 5 4 6 9 11 12 13 15 19 22 25 27 28 30
47 49 50 49 49 49 50 50 48 44 40 37 36 34 31 30 26 21 19 17 14 13 13 13 10 8 8 7 5 4 5 8 9 10 10 11 13 17 21 24 26 29 32
49 50 48 47 48 49 47 45 42 39 34 32 32 30 27 24 19 14 13 12 10 9 8 4 3 3 3 3 4 4 6 8 9 6 6 10 16 21 24 24 22 22 25
48 47 46 46 47 45 42 40 37 32 29 29 28 28 24 19 16 12 10 7 5 3 4 5 3 2 1 3 6 8 8 7 4 3 7 11 15 18 15 13 16 14 14

GEFSMA_500_meanwind_006.txt.gz
Wind_Speed
19 20 21 21 21 22 21 20 21 20 22 23 25 26 27 29 31 33 34 35 35 36 38 41 43 44 45 47 48 49 49 49 49 48 48 48 49 48 47 48 49 49 49
19 19 19 20 21 22 22 22 23 25 24 24 26 27 28 30 33 35 37 38 38 40 42 44 46 49 51 52 54 56 57 58 56 53 50 49 49 49 49 48 49 50 50
23 23 21 22 24 24 26 27 28 28 27 27 29 31 33 34 35 36 38 40 43 44 46 47 50 52 54 56 58 60 61 62 62 59 56 54 52 51 51 51 51 52 52
25 25 24 26 28 28 29 31 31 32 33 36 37 38 39 40 41 42 43 46 48 51 53 54 55 57 59 61 62 64 66 67 66 65 62 60 58 56 55 55 54 54 54
29 29 28 30 31 32 33 34 35 36 38 41 43 45 47 47 48 51 54 56 57 58 59 60 61 63 65 66 67 68 69 70 69 69 67 64 62 61 60 60 58 57 56
33 33 32 35 36 37 38 38 40 42 43 44 46 48 51 53 56 59 61 64 65 65 64 64 65 66 67 69 70 72 72 72 72 71 69 67 64 62 59 59 60 58 56
35 36 37 39 41 43 44 44 46 48 50 52 53 54 54 57 60 62 63 66 68 68 67 66 67 68 69 70 70 71 70 69 68 66 65 62 59 55 52 53 56 56 53
38 37 39 41 43 47 49 51 53 55 57 58 59 59 60 60 61 62 64 66 68 69 69 69 70 70 70 67 63 61 60 58 56 54 52 50 49 45 43 43 44 46 46
42 42 43 45 48 50 51 54 55 58 58 59 60 61 61 60 61 65 68 69 69 68 68 70 71 70 64 60 56 53 52 50 48 46 45 43 42 39 37 38 39 41 42
45 45 46 48 51 52 53 55 54 55 55 56 57 58 60 63 66 67 67 66 65 66 68 69 68 64 60 57 54 51 49 48 45 43 41 40 40 38 38 39 40 41 43
49 49 49 50 51 52 53 54 54 55 56 58 59 62 64 66 66 66 64 64 66 67 68 65 60 58 57 56 54 52 49 47 45 45 44 43 42 42 41 42 44 45 45
51 50 51 51 52 53 53 54 55 55 57 60 63 66 66 65 64 64 65 68 69 69 67 63 58 56 56 55 54 53 52 51 49 49 49 49 48 47 47 47 48 48 48
54 55 54 52 52 52 54 57 59 58 59 62 64 65 64 63 65 67 68 70 70 69 66 61 59 58 58 58 57 56 55 56 55 54 55 55 54 53 52 53 53 52 51
55 55 53 51 52 55 56 58 60 61 63 64 64 63 63 65 67 68 69 70 69 66 63 62 61 61 61 61 60 59 60 61 61 59 59 60 60 60 59 59 58 57 56
53 52 52 53 54 56 58 60 62 64 65 64 63 64 66 68 70 71 71 70 68 65 63 62 61 59 61 61 61 61 62 63 63 61 61 62 63 64 64 63 63 62 60
54 55 54 54 56 58 60 62 62 63 62 62 63 65 67 69 70 69 69 68 68 66 65 62 62 60 59 59 58 59 60 60 60 59 60 61 62 63 64 65 65 64 62
56 55 54 55 56 58 59 59 59 60 61 62 64 65 66 68 68 68 67 66 66 66 66 63 62 56 50 47 45 46 49 50 49 49 50 51 52 55 59 62 64 65 63
55 54 53 53 55 56 57 57 58 60 61 62 63 64 65 66 65 65 64 65 64 63 61 57 51 45 41 40 39 39 39 39 40 41 41 41 42 46 50 54 57 59 61
54 55 54 54 55 56 55 56 57 59 61 62 63 63 62 62 62 63 62 59 55 52 50 47 41 38 36 37 36 34 33 33 34 36 36 37 40 43 45 47 49 51 54
55 56 56 55 55 54 54 56 58 60 61 61 61 61 61 61 61 59 53 48 45 44 44 41 36 33 33 33 31 29 28 28 29 31 33 35 37 39 41 41 42 44 46
53 55 56 55 54 54 55 58 59 60 60 60 61 61 60 58 55 49 44 42 41 41 38 33 29 27 27 26 25 24 23 23 25 26 27 27 27 28 30 31 33 35 36
54 55 54 53 53 54 56 58 59 58 59 60 60 58 54 50 45 42 40 38 37 35 29 24 20 19 20 21 20 18 17 17 18 18 16 16 18 17 18 20 22 25 29
53 52 51 52 53 54 56 57 57 58 59 58 55 51 47 42 39 38 35 33 32 28 19 15 14 15 14 14 12 11 10 10 10 11 10 10 12 11 12 14 16 19 22
48 49 51 53 55 55 55 56 57 56 54 50 47 43 40 37 36 33 29 26 24 16 11 10 10 9 8 7 6 6 6 7 7 7 6 6 7 7 9 11 13 16 20
47 50 52 53 54 55 54 53 51 49 45 42 39 36 35 34 32 27 22 18 13 8 6 5 4 4 3 2 2 4 4 4 4 3 2 3 3 4 6 8 11 15 19
48 50 51 53 53 52 50 46 43 40 36 33 31 31 31 30 25 19 12 8 4 1 1 2 3 4 3 2 2 2 2 2 1 3 4 6 7 8 9 10 12 15 18

GEFSMA_500_meanwind_012.txt.gz
Wind_Speed
11 12 11 11 12 12 12 13 14 15 16 18 20 21 24 27 28 28 28 29 30 31 32 33 33 34 35 35 36 36 37 38 40 42 43 44 45 45 45 45 45 46 46
15 16 16 16 16 17 18 19 19 19 20 21 22 24 25 28 31 33 35 35 36 36 37 37 38 39 40 41 42 43 44 46 48 49 51 51 51 50 49 48 48 47 47
19 20 20 21 22 23 24 25 26 26 27 27 28 29 30 32 35 38 40 42 43 43 44 44 45 46 47 49 50 52 54 56 56 56 57 57 57 55 53 51 51 50 49
26 27 27 27 28 29 31 32 32 33 34 34 35 36 37 38 40 43 45 47 48 50 50 51 51 53 54 55 56 58 59 60 60 59 59 59 58 57 55 53 53 52 52
31 32 33 33 34 34 35 36 38 39 40 41 41 42 43 45 47 48 50 52 53 55 56 57 58 59 60 60 61 61 61 61 61 60 59 58 58 58 57 56 56 56 55
34 36 37 37 37 38 39 40 41 43 44 46 47 47 48 49 50 51 52 53 54 56 57 59 60 61 62 63 63 63 63 64 63 62 60 59 59 59 59 58 58 57 57
38 40 42 41 41 41 42 44 45 46 47 48 49 50 50 51 51 52 52 53 54 56 57 58 59 60 61 62 64 65 66 65 63 62 60 59 59 59 58 58 58 58 58
41 44 45 45 45 45 45 46 47 49 50 51 51 51 51 52 53 54 54 56 57 58 60 61 62 63 65 66 67 66 64 62 61 60 60 59 58 58 58 57 57 57 57
45 46 47 46 46 45 46 48 49 50 52 53 52 51 52 52 53 55 57 58 59 60 62 64 65 66 67 67 65 63 62 62 61 61 60 59 58 57 57 57 56 56 55
45 46 47 47 47 48 49 49 50 51 51 51 51 51 52 53 54 56 59 61 62 63 65 66 66 67 67 65 64 63 63 64 64 63 61 59 58 57 56 56 55 53 51
46 47 48 49 49 50 50 51 52 51 50 51 53 55 56 58 58 58 59 61 63 64 65 66 66 66 65 65 65 65 65 65 64 62 60 58 57 56 55 55 53 50 48
48 49 49 49 49 50 52 53 53 53 54 56 58 59 59 59 59 59 58 58 60 62 64 65 67 67 66 66 66 66 66 65 64 61 59 57 55 55 54 53 51 49 47
47 48 48 48 49 51 52 53 54 55 57 59 60 60 59 58 58 58 58 59 61 63 65 67 69 69 69 69 69 69 68 66 64 63 60 58 57 55 55 54 51 49 47
48 49 49 51 53 53 53 54 56 58 59 60 59 58 58 58 59 61 63 65 65 66 67 68 69 70 70 70 70 69 68 67 66 65 63 61 59 57 57 55 53 51 50
51 51 52 54 54 55 56 57 59 60 60 59 58 57 58 60 62 64 66 68 70 69 68 69 71 72 73 72 70 69 69 68 68 67 66 64 62 59 58 57 55 54 53
50 50 52 54 56 57 57 59 60 61 60 58 58 58 60 62 64 67 69 71 72 73 71 71 73 75 75 74 72 70 68 67 66 64 63 62 61 59 58 59 58 57 56
53 55 56 58 59 59 60 62 63 62 60 59 59 61 63 64 66 68 69 71 72 73 73 72 73 73 73 71 67 63 58 56 54 53 52 52 52 52 54 56 57 57 58
56 57 58 58 59 60 62 63 62 60 59 59 60 62 64 66 67 68 69 70 72 73 74 72 67 64 60 57 54 51 48 45 42 41 41 42 42 43 45 47 50 53 56
58 58 57 57 58 59 59 58 58 58 58 59 60 62 63 65 66 68 69 70 71 69 67 62 56 51 47 46 43 41 37 34 32 32 33 33 34 35 36 38 41 45 49
57 57 56 56 57 57 58 59 58 57 57 57 59 61 62 64 66 67 67 66 63 58 53 49 45 40 38 38 35 31 27 25 24 25 26 27 28 29 30 32 34 38 42
56 57 57 58 59 58 58 56 54 54 55 56 58 60 61 63 65 64 60 54 49 45 42 38 33 31 30 29 26 21 20 20 20 21 21 22 22 23 25 28 31 34 37
58 58 58 59 58 56 53 52 52 53 54 55 57 59 59 59 57 52 46 41 38 36 31 27 24 22 21 19 18 16 15 16 16 17 16 16 17 17 20 22 25 28 30
58 57 56 56 53 51 49 49 50 52 54 55 55 54 52 48 43 38 34 32 30 27 22 18 16 15 15 14 13 12 11 11 11 11 10 11 11 12 14 15 16 18 20
54 53 53 51 49 48 48 49 50 51 51 50 48 45 41 36 32 29 26 23 20 17 14 12 11 11 11 10 9 8 8 8 8 8 7 7 8 8 9 11 12 13 14
50 50 48 47 46 47 47 48 47 45 44 42 40 35 31 27 24 22 18 14 12 11 10 10 9 9 8 8 7 7 7 7 7 7 6 6 7 7 7 8 10 11 12
46 45 45 45 45 45 44 41 38 37 37 36 32 28 25 22 20 16 13 11 10 10 10 9 9 9 8 8 7 8 8 8 8 8 8 8 9 9 10 10 11 11 12

GEFSMA_500_meanwind_018.txt.gz
Wind_Speed
7 8 9 10 11 11 12 13 15 17 18 19 20 21 22 23 24 25 26 28 29 30 31 32 33 35 36 37 37 38 38 38 38 38 38 37 37 36 37 37 37 38 38
10 11 12 13 13 14 15 16 18 19 20 22 23 24 25 27 29 30 31 32 33 34 35 36 37 38 39 40 41 42 43 43 44 44 44 45 44 44 44 45 45 46 46
15 17 19 20 20 20 20 21 22 23 24 25 26 28 29 30 31 33 34 35 37 38 39 39 40 41 41 42 42 43 44 46 47 48 49 50 50 51 51 51 52 52 52
21 23 25 27 27 27 27 26 26 27 27 28 30 32 33 34 36 37 38 39 41 42 42 42 42 42 42 42 43 44 44 45 46 47 49 51 52 53 54 55 55 55 54
27 28 30 32 34 34 32 31 31 31 31 32 33 35 37 39 40 40 41 42 43 44 45 45 44 44 44 45 46 47 48 49 50 50 51 52 52 53 53 53 54 54 54
32 33 34 35 37 36 34 32 31 32 33 34 36 39 41 42 42 43 44 45 45 46 46 46 47 48 49 50 50 51 52 53 54 54 54 54 54 54 55 55 55 54 53
34 35 35 35 34 31 28 28 29 32 34 37 39 41 43 43 44 45 46 47 47 48 49 50 51 52 53 55 56 57 58 58 58 58 57 56 56 56 56 56 56 55 54
33 33 33 33 30 30 30 32 34 36 37 39 40 42 43 44 45 47 48 49 50 51 53 54 56 57 58 59 60 61 62 61 60 59 58 57 57 56 56 57 57 56 55
29 29 30 32 34 37 37 37 38 39 41 42 42 43 44 46 48 49 50 52 54 55 57 58 60 61 62 62 62 62 61 61 60 59 58 58 59 59 59 58 58 57 56
26 27 31 35 37 38 39 40 42 43 44 45 45 47 48 50 51 52 53 55 57 59 60 61 61 62 63 63 63 63 62 62 62 62 62 62 62 62 62 62 61 60 59
26 30 33 36 39 41 43 44 45 46 47 48 49 50 51 53 55 56 56 58 59 61 62 62 62 63 64 64 64 65 65 66 67 67 67 67 67 66 65 64 64 63 62
30 34 37 40 42 45 47 47 48 49 50 52 54 56 57 58 60 60 60 60 60 61 62 63 64 65 67 68 68 69 71 72 72 73 73 73 72 70 69 67 66 65 64
34 38 41 43 46 49 50 51 52 53 55 58 59 61 61 62 62 63 63 62 62 61 61 63 67 69 70 71 72 74 75 76 76 77 77 76 75 73 72 70 69 67 66
39 43 45 48 50 52 53 55 56 58 61 63 63 63 62 62 63 63 64 65 65 64 63 65 67 70 72 73 74 75 76 77 77 77 76 76 75 74 73 72 71 70 67
44 47 50 52 54 56 58 60 61 64 65 65 64 63 62 63 64 65 66 68 69 67 65 67 70 72 74 75 76 76 76 75 75 74 73 73 72 72 72 71 71 70 69
49 52 54 56 59 60 62 64 66 67 66 65 64 63 64 65 65 66 67 68 69 69 67 67 70 73 75 76 76 75 74 72 70 68 66 65 64 64 65 65 66 66 66
52 54 57 59 62 64 66 67 68 67 65 64 65 65 65 64 64 64 65 66 68 69 69 68 70 72 72 72 70 68 65 61 58 55 53 52 52 52 52 53 55 57 59
54 57 60 62 64 66 67 67 66 65 64 64 65 64 63 62 62 64 65 66 68 70 70 69 67 65 62 60 57 53 50 47 43 41 40 40 40 41 41 42 43 45 47
56 59 61 64 65 66 66 64 63 63 63 63 62 61 61 62 62 63 65 66 66 66 65 62 56 51 46 44 41 38 36 34 32 31 31 31 32 32 32 33 33 35 37
58 60 62 63 63 63 62 61 62 62 61 60 60 60 61 61 62 62 63 62 60 57 53 48 42 37 34 32 30 27 26 26 26 25 24 24 24 25 25 26 26 28 30
59 60 60 60 59 60 60 61 61 60 59 59 59 59 60 60 60 59 57 53 49 44 38 33 29 26 25 24 23 21 20 21 22 21 19 19 19 19 20 21 22 23 25
57 57 57 57 58 58 59 59 59 58 57 57 57 57 57 56 53 50 46 43 37 31 26 23 21 21 20 19 19 18 17 17 18 16 14 15 14 15 15 16 17 18 20
54 55 56 56 57 57 56 56 56 56 56 55 54 53 50 47 43 39 34 30 26 23 21 19 18 18 18 18 17 17 16 15 15 14 13 13 12 12 12 12 13 14 16
52 53 54 54 54 54 54 54 54 54 53 51 48 45 41 38 32 27 23 21 20 20 19 19 19 18 18 18 17 17 16 16 15 14 13 12 11 10 9 9 10 11 12
50 51 51 51 51 52 52 51 51 50 47 44 40 36 32 26 21 18 17 17 18 19 20 20 20 20 20 20 20 19 18 17 16 16 13 11 10 9 8 8 8 9 10
48 49 49 49 49 49 49 47 45 42 38 36 32 30 24 17 15 15 15 16 18 19 20 21 21 21 20 20 19 18 17 16 16 16 15 13 12 11 10 10 11 11 11

GEFSMA_500_meanwind_024.txt.gz
Wind_Speed
15 14 15 15 15 15 15 15 16 16 16 16 16 16 16 16 17 17 18 19 20 22 24 25 27 29 30 32 34 35 36 37 37 37 37 37 37 38 38 37 37 37 36
19 18 18 18 19 18 18 18 19 20 21 21 21 21 21 20 20 21 21 22 23 25 27 28 30 32 33 35 36 38 40 41 42 43 43 43 43 42 42 42 42 42 42
24 24 24 23 24 24 24 24 24 25 27 27 27 26 25 24 24 24 25 27 28 29 31 33 34 36 37 38 39 40 42 43 44 45 45 46 46 45 45 45 45 45 46
30 31 30 30 30 31 31 31 30 30 30 30 29 28 27 26 26 27 28 30 32 34 35 36 38 39 40 41 42 44 45 46 46 47 47 48 48 48 47 48 48 48 48
35 36 36 37 38 37 36 34 32 32 32 31 30 29 29 28 28 28 30 33 35 37 39 39 41 42 43 44 46 47 48 49 49 50 50 51 52 52 52 52 52 52 52
38 40 40 41 41 39 37 33 30 29 27 27 27 27 27 27 29 30 32 34 36 39 42 43 44 45 46 48 49 51 52 52 53 54 55 55 56 57 57 57 57 57 56
39 38 40 40 39 38 35 31 26 23 22 22 24 25 28 30 30 32 34 37 39 41 43 45 47 49 50 51 53 54 56 57 57 58 59 60 61 61 61 61 61 61 61
36 34 34 34 34 33 30 24 21 22 23 25 25 27 28 30 31 34 36 39 41 44 47 49 51 53 54 56 57 57 59 60 62 63 63 64 65 65 65 65 65 64 64
31 30 29 31 30 27 24 21 21 23 25 26 28 30 32 35 36 38 40 44 46 49 52 53 55 56 57 59 60 61 61 63 64 66 67 68 68 68 68 68 67 66 65
28 25 25 26 24 23 22 22 24 26 29 30 33 35 38 41 44 47 48 50 51 53 55 56 58 59 60 61 62 63 64 65 66 67 69 69 70 70 69 69 69 68 67
25 23 23 24 23 23 24 26 28 31 33 36 37 40 42 45 48 51 54 56 58 58 58 59 60 62 63 65 66 67 67 68 69 70 71 71 71 71 71 71 71 71 70
27 24 24 25 26 28 29 31 33 36 38 40 42 45 47 50 52 54 56 58 59 60 61 62 63 65 66 67 68 68 68 69 70 71 72 72 73 73 73 73 73 73 73
29 28 30 31 32 33 34 36 38 40 42 44 47 49 51 54 56 58 59 59 60 60 62 63 64 64 65 67 68 67 68 69 70 71 72 72 73 74 74 74 74 74 74
34 33 34 34 35 36 37 40 42 44 46 49 51 53 55 57 58 59 60 60 60 60 62 63 63 63 64 66 68 68 69 70 70 70 71 72 73 73 74 74 74 75 74
37 36 37 38 38 39 41 43 46 48 51 53 55 56 58 59 60 60 60 61 61 60 59 61 62 63 65 67 69 69 68 68 66 66 66 66 67 67 68 70 71 71 71
38 39 40 42 43 44 45 48 50 52 54 56 58 58 59 60 60 60 60 60 60 59 58 60 63 65 65 66 65 64 62 60 58 56 55 55 55 55 56 58 61 63 65
42 42 43 45 46 48 50 52 53 55 56 58 58 59 59 59 59 59 59 59 59 61 60 61 63 63 61 59 56 53 51 48 46 44 42 41 41 42 43 45 47 50 53
46 45 46 48 50 51 53 54 56 56 57 58 58 58 58 58 58 57 57 58 60 61 62 60 58 55 52 48 44 42 40 38 36 34 33 32 32 33 34 35 37 39 41
49 49 50 51 52 54 55 56 56 57 57 58 57 57 57 56 56 57 58 59 60 60 58 54 49 45 42 38 36 34 33 32 31 29 28 27 27 28 28 28 29 30 31
51 51 52 53 54 55 56 56 56 56 56 56 56 55 55 55 56 57 58 59 57 54 50 44 39 36 34 34 33 32 31 30 29 28 26 25 25 25 25 24 24 25 26
53 53 54 55 56 56 56 56 55 55 55 55 55 55 55 55 57 57 56 54 51 46 40 35 33 32 32 33 34 33 31 30 29 27 25 24 23 22 22 21 21 21 22
53 54 55 55 55 55 55 55 55 54 54 54 54 54 55 56 55 53 50 47 42 37 33 30 30 31 32 33 32 32 31 30 28 27 25 24 22 21 20 19 18 17 17
53 54 54 54 54 54 54 54 54 53 53 52 53 54 54 52 49 45 42 38 35 31 29 30 31 32 31 30 30 29 29 28 27 25 24 23 22 19 18 16 15 15 15
52 53 53 54 53 53 53 53 52 52 51 52 52 51 48 45 40 37 33 31 29 29 29 30 30 29 28 26 26 25 24 24 24 23 22 21 20 18 17 15 14 13 13
51 52 52 52 51 50 50 50 50 50 50 50 48 44 40 36 32 28 25 25 25 26 28 27 26 24 23 22 22 22 22 22 22 21 20 19 18 17 16 15 14 14 13
49 49 49 49 48 48 48 49 48 47 46 44 41 37 33 28 24 21 20 20 22 23 23 22 21 21 21 21 20 21 21 20 20 19 17 15 13 13 13 14 14 14 14

GEFSMA_500_meanwind_030.txt.gz
Wind_Speed
20 20 20 20 21 21 21 21 20 19 19 19 20 20 21 23 22 19 20 21 22 22 22 23 23 23 24 24 25 27 28 29 31 32 33 34 35 36 36 37 38 39 39
26 26 25 25 25 25 25 24 24 23 23 22 22 23 24 25 26 26 25 25 26 26 26 27 27 27 28 29 30 31 33 34 35 37 38 39 39 40 41 42 42 43 43
30 31 32 32 30 30 30 30 28 27 27 27 26 26 27 28 29 31 31 30 29 29 30 31 31 31 31 32 34 35 37 38 39 41 42 43 44 45 46 46 46 47 47
34 35 36 36 34 33 33 33 32 31 32 31 30 30 29 30 31 33 34 34 31 30 31 33 33 34 34 35 36 38 40 41 42 44 46 47 48 49 50 51 52 52 51
36 37 37 38 36 35 33 34 34 33 33 33 31 30 28 28 29 31 32 33 33 32 32 32 32 34 36 37 39 41 43 44 46 48 49 51 52 54 55 56 57 57 57
38 37 37 36 34 33 33 33 33 33 32 33 31 28 27 26 26 26 27 28 28 29 31 31 32 34 36 39 42 44 47 49 51 53 55 56 57 59 60 61 62 62 63
37 37 35 34 34 32 30 28 29 30 30 29 28 25 24 24 25 25 26 28 30 31 33 36 37 38 40 42 45 48 51 53 56 58 60 61 62 64 65 66 67 67 68
37 37 34 33 32 31 28 26 25 24 25 25 25 25 26 26 27 28 29 31 33 34 35 38 41 44 46 48 50 53 55 57 59 61 63 65 67 68 69 70 71 72 72
38 35 33 31 31 30 29 27 26 25 24 24 25 26 25 26 27 29 31 33 36 38 41 44 47 49 52 54 56 58 60 61 62 64 66 68 70 71 72 74 75 76 76
39 35 33 31 31 31 30 29 28 27 27 26 26 27 28 31 32 34 36 38 40 43 46 49 51 54 57 59 62 63 64 65 66 68 69 71 72 73 74 75 76 77 78
39 36 34 32 31 31 31 30 30 30 30 30 30 32 33 35 37 40 42 44 47 50 52 54 57 59 61 63 65 66 67 68 69 71 71 72 72 73 74 75 75 76 77
38 37 35 34 33 33 31 31 32 32 32 33 34 36 38 40 42 45 47 49 52 55 58 60 62 64 65 66 68 68 68 68 69 70 71 72 72 73 73 73 73 73 74
39 38 37 36 35 34 34 34 34 34 36 37 39 40 42 44 47 50 52 54 56 58 61 63 65 67 68 69 70 69 69 69 70 70 71 72 72 72 72 72 71 71 71
40 39 39 38 37 36 36 36 37 38 40 41 43 44 47 49 51 54 56 58 59 60 62 64 65 66 67 69 69 69 70 71 72 72 71 70 68 66 64 63 62 62 62
42 42 41 41 39 39 39 39 40 41 42 44 46 48 50 53 55 57 59 61 62 62 62 63 65 66 67 67 69 69 70 70 69 67 64 62 59 57 55 53 53 53 53
44 43 43 43 42 42 42 43 44 45 46 48 50 51 53 56 58 59 61 62 63 63 62 63 65 66 67 67 68 68 66 63 60 57 54 51 49 48 47 46 45 44 44
47 47 47 46 46 46 46 47 48 49 50 51 53 54 56 58 59 59 60 61 61 62 62 62 65 66 66 65 64 61 58 54 51 48 46 45 44 44 44 42 41 40 39
51 51 50 50 50 50 50 51 52 53 54 54 56 57 57 58 58 58 58 59 61 62 63 62 62 62 61 58 56 53 50 47 44 43 42 42 41 41 41 40 39 37 36
53 53 53 53 53 53 53 54 55 55 56 57 57 57 57 57 57 57 58 59 60 61 61 61 58 56 53 50 48 46 43 42 41 40 39 39 38 38 38 38 36 34 32
54 54 54 54 54 55 55 56 57 57 57 57 57 56 56 56 56 57 57 58 59 59 58 55 52 48 45 43 42 40 39 38 37 37 37 37 37 36 35 35 34 32 30
55 54 54 55 55 55 56 57 57 57 56 56 55 55 55 55 55 55 56 56 56 54 52 48 43 39 38 38 37 36 35 34 33 34 33 33 34 33 33 32 31 30 29
54 54 55 56 56 56 56 56 56 56 56 55 54 54 54 53 53 53 53 52 50 48 43 38 35 35 35 34 33 32 32 31 29 30 30 30 31 30 30 29 29 28 27
54 55 55 55 55 55 55 55 55 55 53 53 52 52 51 51 49 49 48 47 43 39 35 33 33 33 31 31 30 30 29 29 29 29 28 28 28 28 27 26 25 25 25
52 52 53 53 54 54 54 54 53 52 51 50 49 48 47 46 45 44 41 38 34 32 31 32 31 30 30 30 30 29 29 28 28 28 27 27 26 24 23 22 21 21 22
50 51 52 52 52 51 51 50 49 48 47 46 45 44 42 41 39 36 32 29 27 28 29 29 29 29 30 31 30 29 28 27 25 25 26 25 23 22 21 19 18 18 19
49 49 49 49 48 48 48 47 46 45 44 42 40 38 35 33 31 27 24 22 23 24 25 26 28 29 29 29 29 28 27 25 24 23 23 22 20 18 17 16 15 16 17

GEFSMA_500_meanwind_036.txt.gz
Wind_Speed
8 9 12 12 14 16 17 18 16 16 18 19 20 21 21 21 21 21 21 22 22 23 24 25 26 26 27 28 28 28 29 29 29 30 30 31 32 32 33 34 35 36 36
9 11 12 14 15 16 18 18 17 15 17 18 19 20 21 22 22 22 23 23 24 26 27 28 29 30 31 31 32 32 33 33 34 34 35 36 36 37 37 38 39 39 40
10 11 13 14 15 16 17 17 16 15 16 17 19 20 22 23 23 23 24 26 27 28 29 30 32 32 33 34 35 36 36 37 38 38 39 40 40 41 42 43 43 44 44
12 12 14 14 15 16 16 16 15 14 14 16 19 20 22 24 25 25 25 26 27 28 30 31 32 33 34 35 36 38 39 40 41 42 43 44 45 45 46 47 48 49 49
14 14 15 16 16 17 16 15 13 14 13 14 17 19 21 23 24 26 25 25 26 27 28 29 31 33 34 35 37 38 40 41 43 44 46 47 49 50 51 52 53 54 55
17 18 18 18 18 17 16 15 14 14 14 14 15 16 17 18 20 22 23 23 24 26 27 30 31 33 35 37 39 40 42 44 46 47 49 51 53 55 57 58 59 60 61
21 22 21 21 20 19 17 16 15 15 16 15 15 15 16 18 20 22 23 24 25 27 28 31 33 35 37 39 42 44 46 47 49 52 54 56 58 60 62 64 65 66 67
24 24 25 23 23 22 19 18 17 17 17 17 17 17 18 19 20 21 24 26 28 29 32 34 36 38 41 43 45 47 50 52 55 57 60 62 64 66 68 70 71 72 73
27 27 28 27 26 23 21 21 20 20 21 20 21 21 22 22 24 25 27 29 31 33 36 38 41 43 45 48 50 53 55 58 60 63 65 68 70 72 73 75 76 77 78
29 30 30 30 27 25 24 24 24 24 24 25 25 25 26 27 28 29 32 34 36 38 41 44 46 49 51 54 56 59 61 64 66 69 71 73 74 76 77 78 79 79 80
31 31 32 30 28 27 27 27 28 28 28 28 29 30 31 32 33 34 36 38 41 43 46 49 51 54 56 59 62 65 67 70 72 74 76 77 78 78 79 79 79 79 79
33 32 32 31 31 30 30 31 31 32 32 33 34 35 36 37 38 40 41 43 45 48 51 54 56 59 61 64 67 69 72 73 75 76 77 78 78 78 78 78 78 78 78
31 32 33 33 33 33 33 34 34 35 36 37 38 39 40 42 43 45 46 47 49 52 55 58 61 63 65 68 70 72 73 74 75 76 76 77 77 77 77 77 77 76 75
34 34 34 35 34 34 36 37 38 39 40 41 42 44 45 46 47 49 50 52 53 55 58 61 64 66 68 69 71 71 72 73 74 74 75 76 76 75 75 73 72 70 69
36 36 38 37 37 38 40 41 42 43 44 45 46 48 49 50 51 52 54 55 56 58 59 61 64 66 68 69 70 71 71 71 72 73 73 73 72 70 69 67 65 63 61
38 39 39 40 41 42 44 45 46 47 48 49 50 51 53 53 53 55 56 57 58 59 61 63 65 66 66 67 68 69 69 70 70 69 68 66 63 61 59 58 57 55 54
41 42 43 44 46 47 48 48 49 50 51 52 54 54 55 55 56 56 58 59 60 61 62 63 65 65 66 66 67 67 67 66 63 61 59 57 56 54 53 51 50 49 48
45 46 47 49 50 51 52 52 53 54 55 56 55 55 55 55 56 57 58 59 61 62 62 62 62 63 63 63 63 61 59 57 55 53 52 51 49 47 45 44 44 43 43
50 51 52 54 55 56 57 57 57 57 57 56 55 55 55 55 56 57 58 60 61 61 61 60 59 59 58 57 54 53 51 50 49 48 46 45 43 42 42 40 40 39 40
54 55 56 57 58 59 59 59 59 57 56 55 54 54 55 55 56 58 59 59 59 58 58 56 54 53 51 50 48 47 45 45 44 43 42 42 41 39 39 38 37 37 36
57 58 58 59 59 59 59 58 57 56 55 54 54 54 55 55 56 57 57 56 55 54 52 50 49 46 45 44 43 42 41 40 40 40 39 38 37 36 36 36 35 35 34
57 58 59 58 57 56 55 54 54 53 52 52 52 53 53 54 54 55 54 52 50 48 47 45 42 40 38 37 36 37 36 35 34 34 34 34 33 34 34 34 33 33 32
54 53 53 52 52 52 51 51 51 50 51 51 51 51 51 51 50 50 48 47 46 44 41 37 34 33 32 31 32 31 31 31 32 31 29 29 30 30 30 29 28 28 28
48 48 47 47 48 48 48 48 48 48 48 48 48 48 48 47 46 45 43 42 40 38 34 31 29 28 28 28 29 29 29 29 29 28 26 25 25 25 25 24 23 23 23
46 46 46 47 47 47 47 47 47 46 46 46 46 45 43 43 42 40 38 36 34 30 27 25 24 24 25 26 26 26 26 26 26 26 25 23 23 23 23 21 20 20 19
45 45 45 45 45 45 46 46 45 45 44 44 43 41 39 38 36 34 30 28 25 22 21 21 21 22 23 24 24 24 24 24 24 23 23 23 22 21 22 22 20 18 17

GEFSMA_500_meanwind_042.txt.gz
Wind_Speed
7 7 8 9 9 10 11 12 12 13 13 12 11 12 13 15 16 17 18 19 20 21 22 23 24 25 26 27 27 28 28 29 30 31 31 32 32 33 33 33 34 34 34
8 9 9 10 11 12 13 12 13 14 14 13 11 11 12 13 15 17 19 20 22 23 24 25 26 27 28 29 30 31 31 32 32 33 34 35 36 36 37 38 38 39 39
9 10 11 12 12 13 13 13 13 14 14 13 12 12 13 14 16 17 19 21 23 24 25 27 28 29 30 31 32 32 32 33 34 34 36 37 39 40 41 41 42 43 43
12 12 13 14 14 15 15 15 15 15 15 14 14 13 13 15 16 18 20 22 23 24 26 27 28 29 31 32 32 33 34 34 35 36 37 39 40 42 43 44 45 46 47
16 16 17 17 17 17 17 17 17 17 17 16 15 15 15 16 16 18 19 20 22 23 25 26 28 29 30 31 32 34 35 37 38 39 41 42 43 44 46 47 48 49 50
19 20 20 21 21 21 20 19 20 20 19 19 18 18 18 18 18 19 20 21 23 24 26 27 28 29 31 33 34 36 38 40 42 44 45 47 48 49 50 52 53 54 55
23 23 24 24 25 24 23 23 23 22 21 21 21 21 21 21 22 22 23 24 25 27 28 29 31 32 35 36 38 40 42 44 46 47 49 51 53 54 56 57 59 60 61
26 27 28 28 28 27 26 25 25 24 24 23 24 25 25 25 26 26 28 29 30 31 32 34 35 37 39 40 42 44 46 48 50 52 54 56 58 59 61 63 65 66 68
28 29 29 28 28 28 27 27 28 25 25 25 25 27 28 29 30 31 32 34 35 36 37 38 40 42 44 46 47 49 51 53 55 57 59 61 63 65 67 69 71 72 74
30 30 30 30 29 29 29 28 27 27 26 26 28 29 30 32 33 35 36 38 39 41 41 42 44 46 48 50 52 54 56 58 60 62 65 67 69 71 73 75 76 77 78
29 31 32 32 30 29 29 29 28 28 28 29 30 31 32 34 36 38 39 41 42 43 45 46 49 51 53 55 56 58 60 63 65 67 69 71 74 76 77 78 79 79 79
30 32 33 31 30 30 30 31 31 30 30 31 32 33 34 36 38 40 41 43 45 46 48 50 52 54 56 58 59 62 64 66 68 71 73 74 75 76 77 78 79 79 79
32 34 33 32 32 32 32 33 33 33 33 34 35 36 37 38 40 42 44 46 47 49 52 54 56 57 59 60 62 64 66 68 71 72 73 74 74 75 75 75 75 75 76
35 33 34 34 34 34 34 35 35 36 36 37 38 38 40 41 43 45 47 49 50 52 55 57 59 60 61 62 64 66 68 69 70 71 71 71 71 71 71 71 71 71 71
35 35 36 36 36 36 37 38 38 38 39 40 41 42 44 46 47 48 49 52 53 54 57 59 60 61 63 64 65 67 68 68 68 67 67 66 65 65 65 65 64 64 63
37 38 38 38 38 39 40 41 41 42 43 44 46 46 48 49 51 52 53 55 56 58 59 60 60 61 63 64 65 65 65 64 63 61 59 59 59 59 58 57 56 55 55
40 41 41 41 42 43 43 44 46 47 48 48 49 50 52 54 55 56 57 57 58 58 58 59 60 61 62 63 63 62 61 60 58 56 55 54 53 52 51 50 50 50 50
43 44 45 46 48 48 48 48 50 51 52 52 53 54 56 57 57 57 57 57 56 57 58 58 59 60 61 60 59 58 56 54 52 51 49 48 47 46 45 45 45 46 45
46 47 48 50 50 51 51 52 53 54 55 56 57 58 57 57 57 57 56 56 56 57 57 57 57 58 57 57 55 52 50 48 47 45 43 42 41 41 41 41 41 40 40
50 49 50 52 52 53 54 54 55 56 57 58 59 58 57 56 56 56 55 55 55 55 55 55 55 54 53 52 49 46 44 42 41 40 40 39 38 38 38 38 37 37 37
50 49 50 52 52 53 53 55 57 57 58 58 57 57 56 55 54 54 54 53 53 53 53 53 51 50 48 46 44 41 38 36 36 36 36 36 36 36 36 36 35 35 34
50 50 52 53 55 56 57 58 58 57 57 56 56 55 54 53 53 53 52 52 51 50 50 48 46 44 43 41 37 35 34 33 31 31 32 33 34 34 34 33 34 33 33
49 51 54 55 56 56 57 57 56 55 55 54 54 53 53 52 52 52 50 49 48 47 45 43 41 39 36 33 31 30 30 30 29 28 29 31 32 33 33 32 32 32 32
51 52 53 54 55 56 56 56 55 54 54 53 52 52 52 50 49 48 47 45 44 43 40 38 35 32 29 27 26 26 26 27 29 30 30 31 32 33 33 31 31 31 31
51 52 53 53 54 54 54 54 53 53 52 51 51 50 48 47 45 43 41 40 38 37 34 31 27 24 23 23 23 24 25 26 28 29 30 30 30 31 32 32 33 32 30
48 50 51 51 51 51 51 51 50 49 48 47 46 44 42 41 39 36 34 33 31 29 27 24 20 19 20 20 21 23 25 27 28 28 29 29 29 29 29 32 32 31 30

GEFSMA_500_meanwind_048.txt.gz
Wind_Speed
12 11 11 11 11 12 13 13 14 15 15 15 14 14 14 14 13 13 13 14 14 14 15 16 17 18 19 20 22 23 24 24 25 26 27 28 29 29 30 31 31 31 32
14 14 14 14 14 14 15 15 15 15 16 15 15 15 14 15 14 14 14 15 15 16 17 18 19 19 20 21 22 23 24 25 26 27 28 29 30 31 32 32 33 34 34
17 17 17 17 17 17 18 18 18 18 18 18 17 17 17 16 16 16 16 16 17 17 18 19 20 20 21 22 23 24 24 26 27 28 29 30 31 32 33 34 35 36 37
19 20 21 21 21 21 21 21 22 21 21 20 20 19 19 19 18 17 18 18 18 19 19 20 21 21 23 24 25 26 26 27 29 30 31 32 33 35 36 37 39 40 41
24 24 25 25 26 26 26 26 25 25 24 23 22 21 21 21 20 20 21 21 20 21 22 22 23 25 25 27 28 28 29 31 32 33 34 36 37 39 40 42 43 44 45
28 29 29 30 30 30 29 29 28 27 27 25 24 23 23 23 24 24 24 24 24 25 25 26 27 28 29 31 32 33 34 35 36 37 38 40 42 44 45 46 48 49 50
31 32 32 32 31 31 31 29 28 28 29 27 26 25 26 26 27 28 28 28 28 28 29 30 31 33 34 35 36 37 39 40 41 42 43 45 46 48 50 52 53 54 55
34 35 35 34 34 32 30 29 29 28 27 28 28 28 28 28 29 30 30 30 31 32 33 34 36 37 38 40 41 42 43 45 46 47 48 50 51 53 55 56 58 59 60
35 35 34 33 32 30 29 29 29 29 27 26 27 27 28 30 31 32 33 34 34 35 37 38 40 41 42 44 45 46 47 48 50 52 53 55 56 58 59 61 62 64 65
35 35 33 32 31 29 29 29 30 29 28 27 28 29 30 31 33 34 35 36 38 39 40 42 43 44 45 47 48 49 49 52 54 56 57 59 60 62 63 65 66 68 69
36 34 33 32 31 30 30 29 29 29 28 29 31 32 33 34 35 36 37 39 40 42 43 44 45 46 47 49 50 51 52 55 56 58 60 62 64 65 67 68 69 71 72
36 37 35 33 31 30 29 30 31 31 31 31 33 34 35 36 37 39 41 42 43 44 45 46 47 49 50 51 53 53 56 57 59 61 63 65 66 67 68 69 70 71 71
39 39 36 34 33 32 33 32 32 33 34 35 36 36 38 39 40 42 43 45 46 47 48 49 50 52 53 54 55 56 59 60 62 64 66 67 68 69 69 69 69 69 69
40 41 39 37 35 35 35 35 34 35 36 37 38 39 40 41 43 45 46 48 49 51 52 53 53 55 56 57 58 60 62 63 65 66 66 67 68 68 68 68 67 65 64
43 43 42 39 39 39 38 38 38 38 39 40 41 42 43 44 46 47 49 50 52 54 57 57 57 59 59 60 61 63 64 64 65 65 66 66 66 67 66 64 62 60 59
46 45 45 44 43 42 42 42 41 41 43 43 45 46 47 47 49 50 52 54 56 58 60 61 62 62 63 64 64 65 65 64 64 64 65 64 64 62 60 57 56 54 53
49 48 47 46 46 45 46 46 45 45 45 47 48 49 49 51 52 54 56 57 60 61 63 64 65 65 65 65 65 64 63 62 63 62 61 60 58 55 53 51 50 49 47
49 49 48 48 48 48 48 48 47 46 47 50 52 53 53 55 56 58 59 60 61 62 64 65 64 64 64 63 62 60 60 60 60 58 56 54 52 50 48 46 44 44 44
50 50 50 50 49 50 50 49 48 49 50 53 55 57 57 57 58 59 60 61 62 62 63 62 62 62 60 59 58 57 57 56 55 53 51 49 47 44 42 41 41 41 42
50 51 51 50 51 51 50 49 51 53 54 56 58 59 59 60 60 60 61 62 62 62 61 61 59 58 57 55 54 53 53 51 50 49 47 44 41 40 39 39 39 40 41
48 48 48 49 51 52 52 52 54 56 58 59 60 61 60 60 60 61 61 61 61 60 58 56 55 53 52 51 50 49 48 47 45 43 40 39 38 38 38 39 39 40 40
46 47 48 49 50 52 53 55 57 58 59 60 61 62 62 61 60 60 59 57 56 54 53 51 49 48 47 46 45 44 43 41 38 37 36 36 37 38 38 39 38 39 39
45 46 47 49 51 53 56 57 58 59 60 61 61 61 60 59 58 56 54 51 49 46 45 43 42 41 40 40 39 38 36 35 34 33 33 34 35 36 37 37 37 38 38
45 47 48 50 52 54 55 57 57 58 59 59 58 57 57 55 53 50 46 44 41 38 36 35 34 33 33 33 32 31 30 30 31 31 31 32 33 34 36 36 37 37 37
44 45 47 49 50 51 53 54 55 55 54 53 52 50 48 45 42 39 36 34 31 30 29 28 27 27 26 26 25 26 26 26 28 29 30 31 31 31 33 34 35 34 34
42 44 45 47 48 49 49 49 49 47 45 43 41 39 36 33 30 29 27 25 24 23 22 21 21 20 20 21 21 22 23 24 26 27 27 28 28 28 28 30 30 30 31

GEFSMA_500_meanwind_054.txt.gz
Wind_Speed
11 11 11 12 13 13 14 15 16 17 18 18 18 17 17 16 16 13 13 13 14 14 13 13 14 14 15 15 16 16 16 17 17 18 18 19 20 20 21 22 23 23 24
12 12 13 14 15 16 17 18 19 20 21 22 22 21 20 19 19 17 16 16 16 16 15 15 16 16 17 18 18 18 19 19 19 19 20 21 22 22 24 24 25 26 26
14 15 15 17 18 19 20 22 23 23 24 25 25 24 23 23 22 21 19 18 18 18 18 18 18 19 19 20 20 21 21 21 22 22 23 24 25 26 27 28 29 29 30
16 17 18 19 21 22 24 25 26 27 28 28 27 26 26 26 25 24 22 21 22 22 21 21 21 21 22 23 23 24 24 25 26 27 28 29 29 31 32 32 33 34 35
20 20 21 22 23 25 27 28 29 30 30 30 30 29 29 29 28 27 25 23 24 24 24 24 25 25 26 26 27 28 28 29 30 32 33 33 34 36 37 38 39 39 40
23 23 24 25 26 27 29 31 31 31 31 32 31 30 30 29 29 28 28 27 27 27 27 27 28 30 30 31 31 32 33 34 35 36 37 38 39 41 42 43 43 44 45
26 27 27 27 28 29 30 31 32 32 31 31 31 30 30 29 28 28 28 29 29 30 30 31 32 33 34 34 35 35 36 38 39 40 42 43 44 45 46 47 48 48 50
29 29 30 31 32 32 32 31 30 31 32 32 30 30 30 30 29 29 29 30 30 32 33 34 35 36 37 38 38 39 40 42 44 45 46 47 48 49 50 51 52 53 54
33 32 33 34 35 35 32 31 30 31 31 31 31 29 30 30 29 28 29 30 31 33 35 36 38 39 41 41 42 42 44 46 48 50 51 51 52 53 54 55 56 57 58
34 35 34 36 37 36 33 30 29 31 32 30 28 29 30 30 31 31 32 33 34 36 37 39 41 42 44 44 46 47 47 49 52 53 55 56 57 58 58 59 60 61 62
37 36 38 38 37 37 34 32 30 29 30 29 28 29 31 32 34 35 35 36 38 39 40 42 44 46 47 48 49 50 51 53 55 57 59 60 61 62 63 64 65 65 66
36 36 38 38 37 36 35 33 32 32 32 32 32 33 33 34 36 38 40 40 41 42 43 45 47 50 51 52 53 54 56 58 60 61 63 64 65 66 67 68 69 69 69
35 35 37 37 35 35 35 35 35 35 34 34 35 36 36 37 39 40 42 43 45 46 47 49 51 53 55 56 57 58 60 62 64 65 66 68 69 70 70 71 70 70 71
40 39 39 38 37 37 37 37 37 38 37 37 39 40 40 41 41 43 44 46 48 50 52 53 54 56 58 59 60 61 64 65 67 68 69 70 70 71 71 71 71 71 71
42 42 42 42 40 41 41 41 41 41 41 41 42 42 44 45 46 47 48 49 51 53 54 56 57 59 60 61 62 63 65 67 69 70 70 70 70 70 70 69 69 68 68
45 45 44 44 44 44 45 44 44 43 44 45 45 47 48 49 49 50 52 52 53 55 58 59 61 63 63 64 65 67 68 69 70 70 68 68 68 66 66 65 64 64 63
47 47 47 47 47 47 47 47 48 48 49 48 48 50 50 51 52 52 53 55 57 58 61 62 63 65 65 66 67 67 67 67 67 66 66 65 63 62 62 60 60 59 58
49 49 49 49 49 50 49 49 49 50 51 52 52 52 53 54 55 55 57 58 59 60 62 64 65 66 65 65 65 64 64 64 64 63 61 60 58 57 56 56 55 54 53
50 51 50 51 51 51 51 51 52 52 53 54 54 54 55 56 58 58 59 60 61 63 63 63 64 64 62 62 61 59 57 56 55 54 53 51 50 50 50 49 49 48 47
50 50 51 51 52 52 52 53 53 54 55 55 55 55 56 56 57 58 59 60 60 61 61 60 59 57 55 53 51 49 48 47 46 46 45 44 44 43 43 43 42 42 42
49 50 51 52 52 52 53 53 53 53 54 54 55 56 56 55 55 56 57 57 57 56 55 53 50 48 47 45 44 43 42 41 40 39 38 39 39 39 38 38 39 39 39
48 49 49 49 51 51 51 52 53 53 54 55 55 55 54 54 53 54 55 54 52 49 47 44 43 41 41 40 40 39 37 36 35 34 34 35 35 35 35 35 36 36 36
46 47 47 47 48 50 51 52 53 54 54 53 52 51 51 51 50 49 48 46 44 41 39 38 37 36 35 33 32 31 30 30 30 30 30 30 31 31 32 33 33 34 34
43 43 44 45 46 48 49 49 50 50 49 49 48 47 46 45 43 42 39 37 35 34 32 30 29 27 26 26 25 24 24 25 26 26 26 26 27 29 31 31 32 32 32
39 40 41 42 44 45 45 45 45 45 45 44 42 40 38 35 33 31 29 28 27 25 23 22 21 20 19 19 20 20 21 21 21 22 23 24 26 28 30 30 30 30 30
36 36 37 39 40 41 41 40 40 38 36 33 29 26 24 22 21 21 20 19 17 16 14 14 13 13 14 15 16 18 18 19 19 20 21 24 26 27 27 28 29 28 28

GEFSMA_500_meanwind_060.txt.gz
Wind_Speed
12 11 11 10 10 10 10 11 12 13 14 15 16 16 16 16 16 15 15 16 15 16 17 17 18 18 17 17 18 18 18 18 19 19 19 19 19 20 20 21 21 21 21
13 13 12 12 12 12 13 13 15 16 16 17 18 19 19 19 18 18 18 19 18 19 19 20 20 20 20 20 20 20 21 21 21 21 21 22 22 23 23 24 24 24 24
14 14 14 14 14 15 15 16 17 17 18 20 21 21 22 21 20 21 21 21 22 21 21 22 22 23 23 22 23 23 23 24 24 25 25 26 26 27 27 28 28 29 29
16 15 16 16 16 17 18 19 20 20 20 21 23 23 23 23 22 22 23 23 23 23 24 24 25 25 25 25 25 26 26 27 28 29 29 30 30 31 32 33 33 33 33
17 17 18 18 19 20 21 21 22 22 22 23 24 24 23 23 23 23 24 24 25 24 25 26 26 27 27 28 28 29 30 31 31 32 33 34 35 35 36 36 37 38 38
19 19 20 20 21 22 24 24 25 24 24 25 25 25 24 24 24 24 24 24 25 25 26 28 29 30 30 30 31 31 32 33 34 35 36 37 38 39 40 41 41 41 42
21 21 22 23 24 25 26 27 28 27 26 25 25 24 24 24 25 25 25 25 26 27 28 28 30 31 32 32 33 34 35 36 37 39 40 41 42 43 44 45 45 45 46
23 25 25 25 26 27 27 26 26 26 26 25 25 25 24 25 25 25 25 26 28 28 29 30 32 33 34 35 36 38 39 40 41 43 44 45 46 47 48 48 48 49 50
25 25 26 27 28 29 27 27 27 27 26 27 28 26 26 26 26 26 26 27 28 30 31 32 33 35 37 38 39 41 43 44 45 47 48 49 50 50 51 52 53 53 54
26 27 28 29 29 28 27 27 28 28 27 26 27 27 26 26 27 27 28 30 31 32 34 36 37 38 40 42 43 44 46 47 48 50 51 52 53 54 55 57 58 59 59
26 27 28 29 29 27 26 25 26 26 26 26 26 27 27 28 28 30 31 32 34 36 38 39 42 43 44 45 46 47 48 50 52 53 54 56 57 58 60 61 62 63 64
28 28 29 28 28 27 26 25 25 26 27 28 28 29 29 31 31 32 33 34 36 38 40 42 44 45 47 48 48 49 51 53 56 57 58 59 61 63 64 66 66 67 67
29 30 30 29 30 29 28 27 27 27 28 29 29 30 32 33 34 35 36 37 39 41 43 44 46 47 49 50 52 53 54 57 58 60 62 63 65 67 67 68 69 69 70
30 31 30 30 30 30 30 31 31 32 33 33 34 35 36 37 38 38 39 41 43 45 46 47 49 51 52 54 56 57 57 60 62 64 66 68 69 69 68 69 70 70 71
32 32 31 32 33 33 34 35 35 36 37 38 39 40 41 41 42 43 44 45 47 48 49 51 52 53 55 56 58 60 61 62 64 66 66 67 67 67 67 67 67 66 66
34 34 35 35 37 37 38 38 39 40 41 42 43 44 44 45 46 47 48 49 49 51 52 53 54 56 58 60 61 62 63 64 64 64 64 64 65 64 62 62 61 59 59
37 38 38 39 39 40 41 42 42 43 44 45 46 46 46 47 48 49 50 51 52 53 55 55 56 58 59 60 61 61 61 61 61 60 60 60 60 59 58 57 57 57 56
39 40 41 41 42 43 44 44 44 45 46 47 47 47 48 48 50 51 52 53 54 55 55 57 57 58 58 58 58 57 57 57 56 56 56 55 54 53 53 54 53 52 51
41 42 43 44 44 45 45 45 46 46 47 47 48 49 50 51 51 52 52 53 54 54 54 54 54 54 54 54 54 54 53 52 51 51 50 49 49 48 48 47 46 45 45
42 43 44 44 44 45 45 45 46 47 47 48 49 50 51 51 51 52 52 52 52 52 52 51 51 51 51 51 50 49 48 47 46 45 45 44 43 42 41 40 40 41 42
42 43 43 43 44 44 44 46 47 47 48 48 48 49 49 50 50 50 50 50 50 50 49 47 47 47 46 45 43 42 41 41 40 39 38 37 36 36 36 36 36 36 37
40 41 41 41 42 43 44 45 45 45 45 45 45 46 46 45 45 44 44 44 43 42 42 42 41 40 38 37 35 34 33 33 32 31 30 30 30 30 30 30 31 32 33
37 37 38 38 40 40 41 41 41 41 41 42 42 41 39 38 37 36 36 36 35 35 34 34 32 31 30 29 28 28 27 27 26 25 25 25 25 26 26 27 27 27 28
34 34 35 36 37 37 37 37 36 36 36 35 33 32 31 30 29 28 27 27 27 26 25 24 24 23 22 22 22 22 21 21 20 20 20 20 22 22 23 24 24 24 25
31 32 33 33 32 32 31 30 30 29 29 28 27 25 24 23 21 21 20 19 19 18 17 16 16 16 17 16 16 16 16 16 16 17 18 18 19 21 21 22 21 22 23
28 29 28 28 27 26 26 26 25 24 24 23 21 19 18 17 15 15 14 13 12 12 11 11 11 12 12 12 12 13 14 14 15 15 16 17 17 18 19 20 20 21 22

GEFSMA_500_meanwind_066.txt.gz
Wind_Speed
17 16 16 15 15 15 15 14 14 13 12 12 12 13 14 15 16 17 17 18 18 18 18 18 19 19 19 19 20 20 20 20 20 21 21 21 22 22 23 23 23 23 23
18 18 17 17 17 17 16 16 16 15 14 14 15 15 16 17 18 19 19 19 18 19 20 21 21 21 22 23 23 23 23 23 23 24 24 25 25 25 26 26 26 26 27
19 19 19 19 19 19 18 18 17 17 17 17 17 17 18 19 19 20 20 20 20 20 21 22 23 23 24 25 25 25 25 25 26 27 28 28 29 29 30 30 30 30 30
21 21 20 20 20 20 19 19 19 19 19 20 19 19 19 20 21 21 22 22 22 22 22 22 23 24 25 26 27 27 27 28 29 30 30 32 33 33 34 34 34 34 34
23 22 22 21 21 21 20 20 20 21 21 22 22 22 22 22 23 23 24 24 24 23 23 24 24 25 27 28 28 28 29 30 32 33 33 34 36 37 37 37 37 37 37
24 24 23 23 22 23 23 23 23 23 24 24 24 25 25 24 24 25 25 25 25 25 25 26 26 26 28 29 29 30 32 33 34 35 36 37 38 39 40 41 41 41 41
25 25 26 26 25 25 25 25 24 25 26 26 26 26 27 27 26 25 26 26 27 27 28 28 29 29 30 30 31 32 34 35 36 37 39 41 42 43 44 46 46 46 47
28 29 29 28 28 28 27 27 26 26 27 28 29 28 27 27 27 27 28 29 29 30 30 31 32 33 33 33 34 35 36 37 39 41 42 44 46 47 48 49 49 50 51
30 31 30 29 29 29 28 28 27 27 28 29 30 29 27 27 28 29 30 30 31 32 33 35 35 35 36 36 37 38 39 39 42 43 45 47 49 51 52 53 52 53 55
30 30 30 30 29 29 30 30 29 28 28 27 29 29 28 28 27 28 29 31 32 33 34 35 36 37 38 38 39 41 43 44 45 46 48 51 54 55 55 56 57 58 59
31 31 30 31 30 29 29 29 27 26 26 26 27 28 29 28 28 29 30 31 33 34 36 37 38 39 40 42 43 44 46 47 48 50 52 54 56 56 57 59 60 62 63
32 32 32 32 31 30 29 27 27 26 26 26 27 27 28 29 30 32 32 33 35 37 38 39 40 42 43 45 46 47 49 50 51 53 54 56 58 59 61 62 62 64 65
31 31 32 31 29 28 26 26 25 26 27 28 29 29 30 32 34 35 36 37 39 40 41 42 44 46 47 48 49 51 52 53 54 56 56 58 60 63 63 63 64 64 65
27 28 27 27 26 25 25 25 27 28 30 31 32 33 34 36 37 38 40 41 43 44 45 46 47 49 49 51 53 54 55 55 56 57 58 60 61 63 63 63 65 66 66
24 25 25 25 25 25 26 27 30 32 33 34 36 37 39 40 41 42 43 44 46 47 48 49 50 51 52 54 55 56 57 58 59 60 60 61 62 63 64 64 65 66 65
23 24 25 26 26 28 30 31 33 34 36 37 39 40 41 42 43 45 46 47 48 49 51 52 53 54 55 55 56 58 59 60 60 61 61 61 61 62 62 62 62 62 62
24 25 27 28 29 31 32 33 35 37 38 40 40 41 43 44 45 47 48 49 51 52 53 53 54 56 57 57 57 58 59 59 59 58 58 59 58 58 58 58 58 57 57
26 27 28 30 31 33 34 36 38 39 40 41 42 43 44 45 46 47 48 49 51 52 52 53 54 56 57 58 58 58 58 57 57 57 57 56 54 53 54 54 54 53 52
28 29 30 32 33 35 36 38 39 40 41 41 42 43 44 44 44 45 46 47 48 49 50 51 52 52 53 53 53 54 54 53 53 52 52 52 50 49 48 48 47 46 46
30 31 32 33 34 36 37 38 39 40 41 41 42 42 42 42 43 43 44 45 45 46 46 46 46 46 47 48 48 47 46 46 46 45 44 44 43 42 41 41 40 40 39
30 31 32 33 34 35 36 37 38 38 39 39 39 39 40 40 40 40 40 40 40 40 40 40 39 39 39 38 38 38 37 37 36 36 37 36 36 37 36 35 35 35 34
29 30 31 32 33 34 34 35 35 36 37 37 36 35 35 35 35 35 35 34 34 34 34 33 33 32 31 31 31 30 30 30 30 30 30 30 30 30 29 29 29 29 29
28 28 29 30 31 31 32 33 33 33 32 31 30 30 30 30 30 29 29 30 29 29 28 27 26 26 25 25 25 25 25 25 24 25 25 25 25 24 24 24 24 24 24
26 26 27 28 29 29 29 29 29 27 26 26 27 26 26 26 25 25 25 25 25 24 23 22 22 22 22 22 21 21 21 21 21 20 20 20 20 19 19 19 19 20 21
23 23 24 24 25 25 25 24 23 22 21 22 22 22 21 21 21 21 21 21 21 20 19 19 19 18 18 17 17 17 16 16 16 16 15 16 15 15 16 16 17 18 19
21 21 21 21 21 21 20 18 17 17 17 17 17 17 16 17 17 18 18 18 18 17 17 16 16 15 15 14 14 14 14 14 13 13 13 13 12 13 14 14 15 16 18

GEFSMA_500_meanwind_072.txt.gz
Wind_Speed
21 21 21 20 20 20 19 19 18 18 17 17 17 17 17 17 17 16 17 17 17 17 17 17 17 18 18 19 19 19 20 20 21 21 22 22 22 23 24 24 24 25 25
22 22 22 22 22 21 21 20 20 20 20 19 19 19 19 19 19 19 19 19 18 18 18 18 19 19 20 21 21 21 22 23 23 24 24 25 26 27 27 28 28 29 29
24 24 24 24 24 23 22 22 21 21 21 21 20 21 21 21 21 21 21 21 20 20 20 20 21 21 22 22 23 23 24 25 26 26 27 28 29 30 30 31 31 32 32
26 26 26 26 25 25 24 24 24 23 23 23 23 23 23 23 23 23 23 23 23 23 23 23 23 23 24 24 25 25 26 28 29 29 30 31 31 32 33 33 34 35 36
27 27 27 27 27 26 26 26 25 25 25 25 25 25 25 25 26 26 26 26 26 26 26 26 25 25 26 26 27 27 28 30 31 32 33 34 34 35 35 36 37 39 39
28 29 28 28 28 27 26 26 27 27 27 28 28 28 28 28 28 28 28 28 29 29 29 28 28 28 28 29 29 30 31 31 33 34 35 37 37 38 39 40 41 42 42
29 30 29 30 30 29 29 29 29 29 30 30 30 30 29 29 29 30 30 31 31 31 31 31 32 31 32 32 33 33 35 35 35 36 38 39 40 41 43 44 45 46 47
32 32 32 32 31 31 31 31 31 31 32 31 31 30 30 30 30 31 32 33 33 34 34 33 34 34 35 36 36 36 37 38 38 39 41 43 44 44 45 46 48 49 49
33 34 33 33 33 33 32 32 33 33 32 33 32 31 31 32 32 32 33 33 34 34 35 35 36 37 38 38 39 40 40 42 43 44 45 46 46 47 48 50 51 52 53
32 34 34 33 33 33 33 34 34 33 32 33 32 32 32 32 33 33 33 33 35 36 37 37 38 39 40 41 42 42 43 44 46 47 48 49 51 52 53 53 54 56 57
32 33 34 35 35 35 36 37 36 35 34 34 34 33 34 34 35 35 35 35 36 37 38 38 39 41 42 43 45 46 46 48 50 51 52 53 54 54 55 55 57 58 59
32 34 34 35 36 36 36 37 36 36 35 34 34 33 32 33 33 34 34 34 35 37 38 39 41 43 45 47 48 49 50 52 53 54 55 56 57 57 57 58 59 60 61
31 33 32 33 34 34 35 35 34 34 33 31 32 33 33 33 33 35 35 37 38 40 41 42 44 46 47 50 51 53 54 55 56 57 58 58 59 59 60 60 61 61 62
26 27 29 30 30 30 30 31 32 31 30 30 31 33 34 35 36 37 39 40 42 43 44 46 47 48 50 52 54 55 57 57 58 59 60 61 62 63 62 62 62 61 62
24 25 25 27 28 28 28 27 28 29 30 31 32 33 35 36 38 39 41 42 43 45 47 48 50 51 52 54 55 57 58 59 60 61 62 63 63 63 63 62 62 61 61
22 24 25 26 28 29 27 27 28 29 30 32 34 35 36 38 39 41 42 44 45 47 49 50 51 52 53 55 55 56 57 59 60 61 62 62 62 62 61 61 61 61 60
21 23 24 24 24 25 26 27 28 29 30 32 34 35 37 38 40 42 43 45 46 47 49 50 51 52 54 55 55 56 57 58 58 58 58 58 58 58 57 56 57 57 57
22 23 24 23 24 25 26 28 29 31 32 33 35 37 38 39 41 42 43 45 46 47 48 49 50 51 52 53 53 53 54 54 54 54 53 52 52 53 53 52 52 52 51
24 24 25 25 25 26 27 29 30 31 33 34 36 37 38 40 41 42 43 44 44 45 46 46 47 48 48 49 49 49 50 49 48 47 46 45 45 45 45 45 44 45 44
25 26 26 27 27 28 29 30 31 32 33 34 36 37 38 39 40 41 41 41 42 42 42 43 43 44 44 44 45 44 43 41 40 40 39 37 36 36 36 35 35 35 35
25 25 26 26 27 28 29 30 30 31 33 34 35 36 37 37 37 38 38 39 39 39 39 39 40 40 40 40 39 38 36 34 33 33 33 31 30 30 29 29 30 30 30
24 24 25 26 27 27 28 28 29 31 32 33 34 34 34 34 34 36 36 35 35 35 35 35 35 35 35 34 33 31 30 29 29 29 28 27 27 27 27 27 27 27 26
24 25 25 26 26 26 27 28 28 29 30 30 30 30 30 30 30 29 29 29 29 28 28 29 29 28 28 27 27 26 26 25 24 24 23 23 23 23 23 23 23 22 22
23 23 24 24 25 25 25 26 27 26 25 25 25 25 25 25 25 25 24 24 24 25 25 25 24 24 24 24 23 22 21 21 19 19 20 20 19 18 18 18 18 18 19
22 23 23 23 23 23 23 23 23 22 22 23 23 23 23 22 22 22 22 22 22 22 22 22 21 21 21 21 20 19 18 17 16 15 15 15 15 15 14 14 15 16 17
21 21 21 21 21 21 21 21 20 20 20 20 20 20 20 19 20 20 20 20 20 19 19 20 19 19 19 19 18 16 15 14 13 12 12 12 12 12 13 13 14 16 16

GEFSMA_500_meanwind_078.txt.gz
Wind_Speed
25 24 23 23 23 22 21 20 20 20 19 18 17 17 17 17 17 16 16 16 16 17 17 17 17 16 16 17 17 17 17 18 18 19 19 20 21 22 22 23 24 25 25
25 25 25 24 23 23 22 22 22 21 21 20 20 19 19 19 19 19 19 18 19 19 19 19 19 18 19 19 19 19 19 20 21 21 22 23 23 24 25 26 27 28 29
26 26 26 25 24 23 23 23 23 22 22 22 21 21 21 21 21 21 21 20 21 21 21 21 21 21 21 21 22 22 22 22 23 24 25 25 25 26 27 29 30 30 31
26 26 27 26 25 24 24 24 23 23 23 23 23 23 23 23 24 23 23 23 24 24 23 23 23 24 24 25 25 25 25 25 26 26 27 28 28 29 30 31 32 34 35
28 27 27 26 26 26 25 25 24 24 24 25 25 25 25 25 26 26 26 27 27 27 26 26 26 27 27 27 27 28 28 28 29 30 30 31 32 32 33 35 36 37 38
30 29 27 26 27 27 26 26 26 25 26 26 26 26 26 27 27 28 29 30 30 29 29 29 29 29 29 30 30 30 31 32 32 33 34 34 35 36 37 38 39 40 41
29 29 28 29 28 28 28 28 27 27 27 28 28 28 28 29 29 30 30 31 31 31 31 31 31 31 31 32 33 33 34 34 35 36 37 38 39 39 40 41 42 43 43
28 28 28 28 29 30 29 29 30 30 30 31 31 31 30 31 31 31 32 32 32 32 33 33 34 34 35 35 35 36 38 38 38 39 40 41 41 43 44 44 45 46 47
26 28 29 29 29 30 31 31 32 32 32 32 32 33 33 33 32 32 33 34 34 34 34 34 35 36 36 36 37 37 39 40 42 43 44 44 44 45 47 47 48 49 50
24 25 26 28 28 30 31 32 32 32 32 33 34 35 35 34 34 34 34 35 35 36 36 36 37 37 37 38 40 41 42 44 45 46 47 48 48 49 50 51 52 53 54
24 23 24 26 29 31 32 32 32 33 33 34 34 35 35 35 36 37 36 36 37 38 39 40 40 40 41 42 43 44 45 46 47 48 49 50 52 53 54 54 55 56 56
23 23 24 25 28 31 32 33 34 34 35 36 35 35 36 36 37 38 38 38 39 39 40 41 41 43 43 44 45 46 47 48 49 51 52 53 54 56 57 57 58 59 59
22 23 24 26 28 29 31 33 34 35 36 35 35 36 36 37 39 39 39 39 40 40 40 41 42 44 45 46 47 48 49 50 52 53 54 55 56 57 59 60 60 60 61
23 23 25 26 27 29 30 32 34 35 35 34 35 35 36 37 36 37 38 38 39 40 40 41 43 44 45 47 48 49 51 51 52 54 55 56 57 58 59 60 61 61 61
24 25 25 26 27 28 29 31 33 34 34 34 34 34 35 35 36 37 37 38 39 40 41 42 43 45 46 47 48 49 51 52 53 54 55 57 58 58 59 59 59 59 58
24 25 26 26 26 27 27 28 30 32 33 33 33 32 33 33 34 36 37 38 40 42 43 43 44 46 47 48 49 50 51 52 53 54 55 56 56 56 57 57 56 56 55
24 25 25 25 25 26 27 28 29 30 30 31 31 31 32 33 34 35 37 38 39 41 42 44 45 46 47 48 49 49 50 51 51 52 53 53 53 53 53 52 51 50 49
24 24 24 24 25 26 26 27 27 28 28 28 29 30 31 33 34 35 36 38 39 41 42 43 44 46 47 47 48 48 49 49 49 50 50 49 49 48 47 46 44 43 42
24 24 24 25 25 25 26 26 26 27 27 28 29 30 32 33 34 35 37 38 39 40 41 42 43 44 44 45 45 46 46 46 46 46 45 44 43 41 40 39 38 37 36
25 25 25 26 26 26 27 27 27 28 27 28 30 31 32 33 34 35 37 38 39 40 40 41 41 41 42 42 42 42 42 42 41 40 39 37 35 34 34 33 32 31 30
27 27 27 27 27 27 27 27 28 28 28 29 30 31 32 33 34 35 36 36 37 38 38 38 38 38 39 39 38 38 37 35 35 34 32 30 29 29 28 28 27 26 26
27 27 27 27 27 27 27 27 27 27 27 28 29 31 31 32 33 33 34 34 35 35 35 35 35 35 35 34 34 33 31 30 29 27 26 25 25 24 24 24 24 24 24
25 25 25 25 25 25 25 26 26 27 27 27 28 29 30 31 31 31 32 32 32 32 32 31 31 30 29 29 29 28 27 26 24 23 22 22 21 21 20 21 21 22 22
24 25 25 24 25 25 24 24 24 25 26 26 27 28 28 28 28 29 29 29 29 29 28 27 27 26 25 24 24 23 23 21 20 19 18 18 18 18 18 19 20 20 20
23 23 23 23 23 23 22 22 23 24 24 25 26 26 26 26 26 27 27 26 26 26 24 24 23 23 22 22 22 21 19 17 16 16 15 15 15 16 16 17 18 18 18
21 20 20 20 20 20 21 21 22 22 23 24 24 24 24 24 24 24 24 24 23 23 22 21 20 20 20 20 19 18 17 15 14 12 12 12 13 14 14 15 16 16 17

GEFSMA_500_meanwind_084.txt.gz
Wind_Speed
25 25 24 23 22 21 19 19 19 19 19 18 17 17 17 16 16 16 15 15 15 15 14 14 14 14 15 15 15 15 15 16 16 17 17 18 19 20 20 21 22 23 24
26 26 26 25 24 23 21 21 20 20 20 20 18 18 18 18 17 17 17 17 17 17 17 17 17 17 18 18 18 18 18 19 19 20 20 21 22 22 23 24 25 25 26
27 27 27 26 26 25 23 22 22 22 22 21 20 20 19 19 18 18 19 19 19 19 19 20 20 19 20 20 20 20 20 21 22 23 23 24 25 25 26 27 28 29 29
29 28 28 28 28 27 25 24 23 23 23 22 22 22 21 20 21 21 21 21 21 21 22 22 22 22 22 23 22 22 23 23 24 25 26 27 28 28 29 30 32 32 33
31 31 30 30 29 29 28 26 25 24 24 23 23 22 22 21 22 22 22 22 23 23 24 24 24 24 25 25 25 25 26 26 27 27 28 30 31 31 32 33 34 35 36
34 34 33 31 30 29 28 28 26 25 24 24 24 24 23 23 23 23 23 24 24 25 26 26 26 26 27 27 28 28 29 29 29 30 31 32 33 34 35 36 37 38 39
32 31 32 32 32 30 29 28 28 27 27 26 26 26 25 25 25 25 25 26 26 27 28 28 28 28 28 29 30 30 31 31 32 32 33 34 35 36 37 39 40 41 42
28 30 30 31 31 31 30 29 29 29 29 28 27 27 27 27 28 28 27 28 29 29 30 30 30 30 30 31 32 33 33 34 34 35 36 37 38 39 41 42 43 44 45
27 30 30 30 30 30 30 29 29 28 28 28 29 29 29 29 29 29 29 30 30 30 30 31 31 32 33 33 34 35 36 36 37 38 39 41 42 43 44 45 46 47 48
26 26 27 27 29 28 29 29 29 28 29 29 30 30 30 31 31 31 31 32 31 32 32 33 33 33 34 35 36 37 38 39 41 42 42 43 43 45 46 47 49 49 50
24 24 23 24 25 25 26 27 28 28 28 28 29 30 31 32 32 32 32 32 33 33 34 34 34 35 36 37 38 39 40 41 42 43 44 45 46 47 48 49 50 51 52
22 21 22 23 23 23 24 25 26 27 28 28 29 30 30 31 31 32 32 33 34 34 35 35 36 37 37 39 40 41 42 43 44 44 45 46 47 49 50 51 52 53 54
21 20 20 20 21 21 22 23 25 26 27 28 29 29 30 30 31 32 33 34 35 35 35 36 37 38 38 40 40 41 42 42 43 45 46 47 48 49 50 52 53 54 54
21 20 19 20 20 20 21 21 23 25 26 28 29 29 30 31 31 32 33 34 34 34 35 36 37 37 38 39 39 40 41 43 44 45 46 48 48 49 50 51 52 53 53
21 19 20 19 19 19 20 21 22 23 24 25 27 28 29 30 31 32 33 33 33 33 34 36 37 37 38 39 40 41 42 43 44 45 47 47 48 49 49 49 50 51 51
19 19 20 20 19 20 20 20 21 22 24 25 26 27 28 29 30 30 31 31 31 32 33 34 35 36 37 38 39 40 42 43 44 45 46 46 47 47 46 47 48 48 48
18 19 20 20 20 20 20 20 21 22 23 24 25 25 26 27 27 28 28 29 30 31 32 34 35 36 37 39 40 42 43 43 44 45 45 45 45 44 45 45 45 44 43
18 18 19 20 20 19 19 20 21 22 22 23 23 24 25 26 26 27 27 28 29 30 31 33 35 36 38 39 41 41 42 42 42 43 43 43 43 42 42 42 41 40 39
18 18 19 20 20 20 20 20 21 21 21 22 22 23 24 24 25 26 27 28 29 30 32 33 35 36 37 38 39 39 39 39 40 40 40 40 40 39 39 38 36 34 34
20 20 20 20 20 20 20 20 21 21 21 22 22 23 24 24 25 26 27 28 29 31 32 33 34 35 36 36 36 37 37 37 37 37 37 36 35 35 33 31 29 28 28
22 22 22 21 21 21 21 21 21 22 22 22 22 22 23 24 25 26 27 28 29 30 31 32 32 33 33 34 34 34 34 34 33 33 32 31 30 28 26 25 24 24 24
21 22 22 22 22 21 21 21 22 22 22 22 22 22 23 24 25 25 27 27 28 28 29 30 30 31 31 32 31 31 31 30 29 29 27 26 24 23 21 21 22 22 21
20 20 20 20 20 21 21 21 21 21 21 21 22 22 22 23 24 25 26 26 27 27 28 28 29 29 29 29 28 28 28 27 25 24 23 21 20 19 18 19 19 19 18
19 19 19 19 19 19 19 20 20 20 20 20 21 21 22 23 24 24 24 25 25 26 26 27 27 27 27 26 25 24 23 22 21 19 18 17 16 16 15 16 17 16 16
19 18 18 18 19 19 19 19 19 18 19 20 21 21 22 22 23 23 22 23 23 24 24 24 24 24 23 22 22 20 20 19 18 17 16 15 15 14 14 14 15 15 14
17 16 17 17 17 18 18 17 17 18 18 19 20 20 20 20 21 21 21 21 22 22 22 21 21 20 20 19 19 18 17 17 16 15 13 12 12 12 12 13 13 13 12